[[{"header":{"parameterUnit":"m.s-1","parameterCategory":1,"la1":30.2991,"la2":30.254,"lo1":-89.0895,"lo2":-89.0444,"dy":0.0017,"dx":0.0017,"nx":28,"ny":28,"refTime":"2024-08-08T03:00:00:Z","depth":0,"parameterNumber":2,"parameterNumberName":"U-component_of_WINDS"},"data":[0,0,0,0,0,0,0,0,0,0,0,0,0,0,0,0,0,0,0,0,0,0,0,0,0,0,0,0,0,0,0,0,0,0,0,0,0,0,0,0,0,0,0,0,0,0,0,0,0,0,0,0,0,0,0,0,0,0,1.9719,1.9721,0,1.9911,1.9913,1.9915,1.993,1.9928,1.9926,1.9923,2.0132,2.0139,2.0147,0,0,0,0,0,0,0,0,0,0,0,0,0,1.9375,1.9381,1.9719,1.9721,1.9724,1.9911,1.9913,1.9916,1.993,1.9928,1.9925,1.9922,2.013,2.0138,2.0147,0,0,0,0,0,0,0,0,0,0,0,0,0,1.9542,1.9384,1.9718,1.9753,1.9758,1.991,1.9913,1.9917,1.9931,1.9927,1.9924,1.9921,2.0127,2.0138,2.0149,2.0283,0,0,2.0183,2.0188,0,0,0,0,0,0,0,0,1.9532,1.9555,1.9746,1.9751,1.9757,1.9893,1.9869,2.004,1.9932,1.9866,1.9923,1.992,2.0056,2.0073,2.0116,2.0293,2.0302,2.0184,2.0191,2.0196,2.0199,0,0,0,0,0,0,0,1.9521,1.9546,1.9795,1.9748,1.9755,1.9763,1.9783,1.9901,1.9977,1.9871,1.9872,1.9894,2.0058,2.0105,2.0121,2.0305,2.0184,2.0194,2.0201,2.0206,2.0602,2.0606,0,0,0,0,0,0,1.9501,1.9537,1.9789,1.9801,1.9634,1.9771,1.9794,1.9853,1.9975,1.9991,1.9897,1.9894,2.0088,2.0108,2.0129,2.0294,2.0196,2.0207,2.0213,2.0599,2.0603,2.0607,0,0,0,0,0,0,1.9494,1.9523,1.9781,1.9669,1.9703,1.978,1.9847,1.9858,1.9905,1.9995,2.001,1.993,2.0086,2.0113,2.0244,2.0301,2.0212,2.0222,2.0594,2.06,2.0605,2.0625,0,0,0,0,0,0,1.9484,1.9521,1.957,1.967,1.9708,1.989,1.985,1.9864,1.9923,1.9921,2.003,2.0045,2.0085,2.0227,2.0255,2.0315,2.0231,2.0589,2.0597,2.0603,2.0619,2.063,2.064,0,0,0,0,0,1.9471,1.9571,1.9572,1.9603,1.9771,1.9893,1.9915,1.9956,1.9927,1.9979,2.0037,2.0042,2.029,2.024,2.0272,2.0336,2.0586,2.0595,2.0603,2.0615,2.0628,2.064,0,0,0,0,0,0,1.9479,1.9584,1.9587,1.9721,1.9797,1.9895,1.9962,1.9969,2.0059,2.0054,2.0105,2.0129,2.0259,2.0311,2.0253,2.0473,2.0436,2.0451,2.0434,2.0447,2.0457,2.0442,2.024,0,0,0,0,0,1.9496,1.9582,1.9671,1.9781,1.9819,1.9883,1.9938,1.9963,2.0046,2.0079,2.0147,2.023,2.0327,2.0391,2.0485,2.0627,2.0652,2.0688,2.0698,2.0706,2.0718,2.0798,2.0815,2.0635,2.0635,2.0635,0,0,1.9533,1.9601,1.9653,1.9784,1.9846,1.9938,1.9911,2.0009,2.0079,2.0096,2.0222,2.0275,2.0372,2.0509,2.0573,2.0557,2.0774,2.0716,2.0722,2.0731,2.0808,2.0825,2.084,2.0641,2.0639,2.0639,0,0,1.9645,1.9705,1.9802,1.9864,1.9957,1.9999,2.0023,2.0119,2.0154,2.028,2.0295,2.0381,2.0547,2.0615,2.0671,2.0809,2.0817,2.0839,2.0893,2.097,2.0984,2.0997,2.1046,2.1063,2.0852,2.0852,2.0852,0,1.968,1.9815,1.9853,1.995,2.0008,2.0023,2.0124,2.0184,2.0305,2.0346,2.0325,2.0532,2.0599,2.0752,2.0785,2.0831,2.0861,2.0827,2.0978,2.0991,2.1004,2.1052,2.107,2.0854,2.0854,2.0853,2.0853,0,1.9853,1.9947,2.0015,2.0126,2.0192,2.0291,2.0346,2.041,2.0429,2.0474,2.0604,2.0684,2.0795,2.0833,2.0855,2.099,2.0977,2.0967,2.093,2.1022,2.1068,2.1087,2.0857,2.0856,2.0855,2.0855,0,0,1.9977,2.0105,2.013,2.018,2.0284,2.0359,2.046,2.0563,2.0617,2.07,2.0787,2.0927,2.0917,2.0981,2.1011,2.1078,2.1183,2.106,2.1063,2.108,2.1337,2.1344,2.1364,2.1188,2.1192,2.1195,2.1329,0,2.0101,2.0275,2.0311,2.0464,2.0551,2.0567,2.0656,2.073,2.0776,2.086,2.0913,2.101,2.099,2.1029,2.1096,2.1155,2.1235,2.1147,2.1273,2.1276,2.1246,2.1388,2.1396,2.1518,2.1347,2.135,2.1353,0,2.0269,2.0351,2.051,2.0601,2.0639,2.0717,2.0815,2.0894,2.0981,2.1009,2.108,2.1102,2.1211,2.1168,2.132,2.1258,2.1313,2.135,2.1356,2.1369,2.1319,2.1405,2.1558,2.1576,2.1381,2.1379,2.1377,0,2.0342,2.0493,2.0608,2.0651,2.076,2.0814,2.0863,2.0945,2.1005,2.1093,2.1133,2.1233,2.1289,2.1368,2.1418,2.1382,2.1566,2.1528,2.1595,2.1593,2.1632,2.1629,2.1796,2.1668,2.1668,2.1667,2.1667,0,2.0477,2.0574,2.0642,2.0712,2.0822,2.0865,2.0974,2.1024,2.1097,2.118,2.1202,2.128,2.1341,2.1429,2.147,2.1589,2.1615,2.1643,2.1653,2.1641,2.1637,2.1677,2.1669,2.1672,2.1671,2.167,2.1669,0,2.0577,2.0626,2.0752,2.0844,2.0869,2.0946,2.1027,2.1098,2.1143,2.1248,2.1275,2.1348,2.1453,2.151,2.1643,2.167,2.1803,2.1809,2.1772,2.1776,2.184,2.1833,2.2038,2.2067,2.192,2.1921,2.1922,0,2.0659,2.0733,2.0832,2.0886,2.0935,2.1024,2.1084,2.113,2.1192,2.1296,2.1355,2.1459,2.1545,2.1712,2.178,2.1881,2.1889,2.1954,2.1905,2.189,2.189,2.1884,2.1893,2.1963,2.1964,2.1965,2.1966,0,2.08,2.082,2.0903,2.0995,2.1065,2.1141,2.1217,2.1262,2.1321,2.1391,2.1495,2.1561,2.1694,2.1799,2.1906,2.1961,2.1974,2.1981,2.2001,2.199,2.1965,2.1979,2.1795,2.1976,2.1975,2.1974,2.1974,2.1973,2.0894,2.096,2.1038,2.1131,2.1191,2.1261,2.1332,2.1384,2.1471,2.1579,2.1603,2.1713,2.18,2.1943,2.2001,2.2091,2.2079,2.2109,2.2117,2.2123,2.2125,2.1951,2.2111,2.211,2.211,2.211,2.211,0,2.1035,2.1085,2.117,2.1272,2.1345,2.1347,2.1431,2.1494,2.1589,2.1666,2.1748,2.1869,2.197,2.2045,2.2149,2.2207,2.2216,2.2233,2.2229,2.2241,2.213,2.2101,2.2223,2.2223,2.2223,2.2223,2.2223,2.2223,2.1116,2.1228,2.1258,2.1401,2.1453,2.1557,2.1605,2.167,2.1731,2.1863,2.1946,2.1992,2.2069,2.2179,2.2273,2.2292,2.233,2.2346,2.2367,2.2261,2.2249,2.2238,2.2211,2.2354,2.2354,2.247,2.2471,2.2472]},{"header":{"parameterUnit":"m.s-1","parameterCategory":1,"la1":30.2991,"la2":30.254,"lo1":-89.0895,"lo2":-89.0444,"dy":0.0017,"dx":0.0017,"nx":28,"ny":28,"refTime":"2024-08-08T03:00:00:Z","depth":0,"parameterNumber":3,"parameterNumberName":"V-component_of_WINDS"},"data":[0,0,0,0,0,0,0,0,0,0,0,0,0,0,0,0,0,0,0,0,0,0,0,0,0,0,0,0,0,0,0,0,0,0,0,0,0,0,0,0,0,0,0,0,0,0,0,0,0,0,0,0,0,0,0,0,0,0,1.8509,1.8513,0,1.8811,1.8814,1.8818,1.8886,1.8884,1.8882,1.888,1.9184,1.9193,1.9203,0,0,0,0,0,0,0,0,0,0,0,0,0,1.7987,1.7996,1.8509,1.8513,1.8517,1.881,1.8814,1.8819,1.8886,1.8884,1.8881,1.8879,1.918,1.9192,1.9204,0,0,0,0,0,0,0,0,0,0,0,0,0,1.8244,1.7999,1.8508,1.8586,1.8596,1.8809,1.8815,1.882,1.8887,1.8884,1.8881,1.8878,1.9176,1.9191,1.9206,1.9362,0,0,1.9252,1.9259,0,0,0,0,0,0,0,0,1.8229,1.8263,1.8571,1.8581,1.8593,1.8808,1.8742,1.9001,1.8888,1.8776,1.888,1.8876,1.9061,1.9085,1.9149,1.9376,1.9389,1.9253,1.9263,1.9269,1.9273,0,0,0,0,0,0,0,1.8211,1.825,1.8628,1.8575,1.8589,1.8604,1.8637,1.8791,1.8932,1.8786,1.8791,1.8826,1.9066,1.9134,1.9156,1.9394,1.9253,1.9266,1.9276,1.9282,1.9763,1.9767,0,0,0,0,0,0,1.818,1.8235,1.8619,1.8637,1.8399,1.8616,1.8653,1.8742,1.8931,1.8957,1.8829,1.8828,1.911,1.9138,1.9167,1.9363,1.9269,1.9283,1.9292,1.976,1.9764,1.9768,0,0,0,0,0,0,1.8169,1.8214,1.8607,1.8438,1.8489,1.8628,1.8728,1.8749,1.8817,1.8964,1.8988,1.8873,1.9108,1.9146,1.9313,1.9374,1.929,1.9304,1.9755,1.9761,1.9766,1.9754,0,0,0,0,0,0,1.8154,1.821,1.8272,1.8439,1.8498,1.875,1.8731,1.8758,1.8844,1.8846,1.9011,1.9035,1.9109,1.929,1.9328,1.9393,1.9315,1.9751,1.9758,1.9765,1.975,1.9758,1.9766,0,0,0,0,0,1.8135,1.8256,1.8275,1.8321,1.8579,1.8753,1.8787,1.887,1.8848,1.8911,1.9005,1.903,1.9361,1.9307,1.935,1.942,1.9747,1.9756,1.9764,1.9746,1.9757,1.9766,0,0,0,0,0,0,1.8091,1.8279,1.8302,1.8481,1.8601,1.8764,1.8847,1.8879,1.9006,1.9003,1.9099,1.9136,1.9297,1.9375,1.9312,1.9581,1.9553,1.957,1.9524,1.9536,1.9544,1.9522,1.9328,0,0,0,0,0,1.8102,1.823,1.8386,1.8528,1.8587,1.8706,1.8785,1.8839,1.8966,1.9017,1.9123,1.9244,1.9375,1.9459,1.9588,1.976,1.9797,1.983,1.9838,1.9844,1.9858,1.9954,1.9971,1.9796,1.9796,1.9796,0,0,1.8127,1.8245,1.8319,1.8523,1.8622,1.875,1.8749,1.8884,1.898,1.9037,1.9203,1.9284,1.9425,1.9595,1.9675,1.9665,1.9914,1.9855,1.9858,1.987,1.9964,1.9981,1.9995,1.9802,1.9801,1.98,0,0,1.8237,1.8339,1.847,1.8569,1.8719,1.8797,1.8827,1.8987,1.9044,1.9211,1.9256,1.9369,1.9594,1.9692,1.9772,1.9917,1.9945,1.9956,1.9999,2.0092,2.0105,2.0118,2.017,2.0187,1.9969,1.9969,1.9969,0,1.8248,1.8445,1.8532,1.8666,1.8753,1.8811,1.8943,1.9034,1.9218,1.9276,1.9262,1.9544,1.9643,1.9837,1.9872,1.9935,1.9972,1.9938,2.0097,2.011,2.0123,2.0174,2.0193,1.997,1.9969,1.9969,1.9969,0,1.8451,1.8587,1.8673,1.8851,1.8948,1.9079,1.9184,1.9271,1.9315,1.9394,1.9562,1.9683,1.9837,1.9886,1.9931,2.0086,2.0076,2.0078,2.0052,2.0139,2.0188,2.0208,1.997,1.997,1.997,1.997,0,0,1.8545,1.8768,1.8798,1.8879,1.9048,1.9154,1.9286,1.9438,1.9511,1.9635,1.9748,1.9935,1.9939,2.0028,2.0084,2.0165,2.0271,2.0157,2.0162,2.0175,2.045,2.0448,2.0469,2.029,2.0294,2.0297,2.0438,0,1.8677,1.8919,1.9,1.92,1.9326,1.9381,1.9497,1.9612,1.9688,1.9804,1.9887,2.0019,2.0013,2.0067,2.015,2.0241,2.0328,2.0232,2.0395,2.04,2.036,2.0495,2.0494,2.0621,2.0458,2.0461,2.0463,0,1.8864,1.8992,1.9205,1.9357,1.9413,1.9516,1.9661,1.9771,1.9902,1.9951,2.0051,2.0099,2.0239,2.0203,2.0395,2.0328,2.0399,2.0453,2.046,2.048,2.0438,2.0518,2.0663,2.0683,2.0494,2.0492,2.049,0,1.8911,1.9136,1.9293,1.936,1.9542,1.9613,1.9691,1.9819,1.9904,2.003,2.0086,2.0225,2.0301,2.0407,2.0491,2.0457,2.0675,2.0647,2.072,2.0718,2.0765,2.0761,2.0924,2.0808,2.0808,2.0807,2.0807,0,1.905,1.9179,1.9317,1.9413,1.9558,1.9648,1.9788,1.9869,1.9982,2.0094,2.0148,2.0252,2.0356,2.0472,2.0538,2.0687,2.0721,2.0764,2.078,2.076,2.0755,2.0809,2.0803,2.0813,2.0811,2.081,2.081,0,1.9129,1.9226,1.9401,1.9558,1.96,1.97,1.9834,1.9929,2.0006,2.0147,2.0185,2.0306,2.0445,2.0539,2.0717,2.0762,2.0923,2.0937,2.088,2.0888,2.0956,2.0948,2.1161,2.1193,2.1054,2.1055,2.1056,0,1.9212,1.9312,1.948,1.956,1.9639,1.9766,1.9854,1.9945,2.0034,2.0189,2.0265,2.0408,2.0528,2.0748,2.085,2.0986,2.1005,2.1069,2.1025,2.1002,2.1006,2.1,2.101,2.1077,2.1078,2.1079,2.1079,0,1.9349,1.9393,1.9518,1.966,1.9763,1.9879,1.9995,2.0057,2.0167,2.0264,2.0408,2.0501,2.0683,2.0825,2.097,2.1048,2.1082,2.1092,2.1116,2.1098,2.1061,2.1082,2.09,2.1087,2.1087,2.1086,2.1086,2.1085,1.9434,1.9525,1.9658,1.9795,1.9892,1.9999,2.0095,2.0185,2.0307,2.0464,2.0509,2.0659,2.0785,2.0984,2.1065,2.1182,2.1175,2.121,2.1219,2.1227,2.1227,2.104,2.1208,2.1208,2.1208,2.1208,2.1208,0,1.9575,1.9662,1.9788,1.9949,2.0056,2.0079,2.0208,2.0296,2.0428,2.0543,2.066,2.0825,2.0962,2.1074,2.1215,2.1287,2.1306,2.1321,2.1317,2.1334,2.1224,2.119,2.1303,2.1303,2.1303,2.1303,2.1303,2.1303,1.9661,1.9817,1.9875,2.0079,2.0165,2.0314,2.0385,2.0483,2.0576,2.0758,2.0873,2.0946,2.1059,2.1209,2.1334,2.1364,2.1413,2.1425,2.1457,2.1353,2.1342,2.1332,2.13,2.1434,2.1435,2.1558,2.1559,2.156]}]]